STARLINK-4552 (53420 NORAD) Tracking and Keplerian Element Data

This shows tracking and keplerian element data for the satellite.

Feedback or suggestion? Click here.




ElementValue
Catalog53420
NameSTARLINK-4552
Epoch Orbit1632
Epoch Day325.16336223
Epoch Year2022
RAAN121.4403
Inclination53.219
Eccentricity0.0001718
Argument of Perigee58.7123
Mean Anonmoly301.4038
Mean Motion15.08839477
Decay Rate-6.81E-06
L11 53420U 22097AJ 22325.16336223 -.00000681 00000+0 -24668-4 0 9990
L22 53420 53.2190 121.4403 0001718 58.7123 301.4038 15.08839477 16327



Live tracking and technical data element details for STARLINK-4552 (NORAD 53420). STARLINK-4552 can be tracked NOW for your location showing map with azimuth and elevation plus other details from your city location.







IsCatalogInMostPopularTable: catalog: 53420, numindb: 7
Update: records affected: 1



GetName: 53420 STARLINK-4552

Hit Count: updated at: Thu, 08 Dec 2022 20:35:34 GMT